Weather History for Key West NAF, FL

Change the Weather History Date:

Saturday, March 23, 2013

  Actual Average Record
Temperature  
Mean Temperature 78 °F -  
Max Temperature 82 °F 78 °F 87 °F (1949)
Min Temperature 73 °F 68 °F 53 °F (1986)
Cooling Degree Days 12    
Growing Degree Days 28 (Base 50)    
Moisture  
Dew Point 72 °F    
Average Humidity 83    
Maximum Humidity 94    
Minimum Humidity 65    
Precipitation  
Precipitation 0.00 in - - ()
Sea Level Pressure  
Sea Level Pressure 29.91 in    
Wind  
Wind Speed 8 mph (SSE)    
Max Wind Speed 15 mph    
Max Gust Speed -    
Visibility 10 miles    
Events      
Averages and records for this station are not official NWS values.
T = Trace of Precipitation, MM = Missing Value Source: NWS Daily Summary

Daily Weather History Graph

Daily Weather History Graph

Search for Another Location

Airport:

Trip Planner

Search our weather history database for the weather conditions in past years. The results will help you decide how hot, cold, wet, or windy it might be!

Date:

Astronomy

Mar. 23, 2013 Rise Set
Actual Time 7:27 AM EDT 7:39 PM EDT
Civil Twilight 7:04 AM EDT 8:02 PM EDT
Nautical Twilight 6:38 AM EDT 8:28 PM EDT
Astronomical Twilight 6:11 AM EDT 8:55 PM EDT
Moon 4:23 PM EDT (3/23) 4:41 AM EDT (3/23)
Length of Visible Light 12h 57m
Length of Day
12h 11m
Waxing Gibbous, 85% of the Moon is Illuminated
Mar 23
Waxing Gibbous
Mar 27
Full
Apr 3
Last Quarter
Apr 10
New
Apr 18
First Quarter

Hourly Weather History & Observations

Time (EDT) Temp. Heat Index Dew Point Humidity Pressure Visibility Wind Dir Wind Speed Gust Speed Precip Events Conditions
12:53 AM 73.9 °F - 72.0 °F 93% 29.98 in 10.0 mi SE 4.6 mph - N/A   Clear
1:53 AM 75.0 °F - 72.0 °F 90% 29.96 in 10.0 mi SE 6.9 mph - N/A   Clear
2:53 AM 75.0 °F - 72.0 °F 90% 29.94 in 10.0 mi SSE 6.9 mph - N/A   Clear
3:53 AM 75.0 °F - 73.0 °F 94% 29.92 in 10.0 mi SSE 6.9 mph - N/A   Clear
4:53 AM 73.9 °F - 72.0 °F 93% 29.91 in 10.0 mi SSE 4.6 mph - N/A   Clear
5:53 AM 73.9 °F - 72.0 °F 93% 29.92 in 10.0 mi SSE 6.9 mph - N/A   Clear
6:53 AM 73.9 °F - 72.0 °F 93% 29.94 in 10.0 mi SSE 6.9 mph - N/A   Partly Cloudy
7:53 AM 75.0 °F - 71.1 °F 87% 29.94 in 10.0 mi SSE 10.4 mph - N/A   Scattered Clouds
8:53 AM 75.9 °F - 73.0 °F 91% 29.96 in 10.0 mi South 9.2 mph - N/A   Partly Cloudy
9:53 AM 78.1 °F - 73.0 °F 84% 29.97 in 10.0 mi South 10.4 mph - N/A   Scattered Clouds
10:53 AM 79.0 °F - 72.0 °F 79% 29.96 in 10.0 mi SSE 13.8 mph - N/A   Partly Cloudy
11:53 AM 80.1 °F 83.8 °F 72.0 °F 76% 29.94 in 10.0 mi South 15.0 mph - N/A   Partly Cloudy
12:53 PM 80.1 °F 83.8 °F 72.0 °F 76% 29.92 in 10.0 mi South 13.8 mph - N/A   Partly Cloudy
1:53 PM 81.0 °F 84.9 °F 71.1 °F 72% 29.90 in 10.0 mi South 12.7 mph - N/A   Partly Cloudy
2:53 PM 82.0 °F 86.3 °F 71.1 °F 69% 29.87 in 10.0 mi SSE 12.7 mph - N/A   Partly Cloudy
3:53 PM 81.0 °F 84.4 °F 70.0 °F 69% 29.85 in 10.0 mi SSE 11.5 mph - N/A   Partly Cloudy
4:53 PM 82.0 °F 85.5 °F 69.1 °F 65% 29.83 in 10.0 mi SE 9.2 mph - N/A   Clear
5:53 PM 81.0 °F 84.1 °F 69.1 °F 67% 29.83 in 10.0 mi SE 6.9 mph - N/A   Clear
6:53 PM 79.0 °F - 71.1 °F 77% 29.84 in 10.0 mi SE 6.9 mph - N/A   Clear
7:53 PM 75.9 °F - 71.1 °F 85% 29.85 in 10.0 mi ESE 4.6 mph - N/A   Clear
8:53 PM 75.9 °F - 72.0 °F 87% 29.86 in 10.0 mi ESE 4.6 mph - N/A   Clear
9:53 PM 75.0 °F - 72.0 °F 90% 29.88 in 10.0 mi ESE 5.8 mph - N/A   Clear
10:53 PM 75.0 °F - 73.0 °F 94% 29.89 in 10.0 mi SE 5.8 mph - N/A   Clear
11:53 PM 75.9 °F - 72.0 °F 87% 29.89 in 10.0 mi SSW 5.8 mph - N/A   Clear